TGW1102 WIII-WSSS

Flight info

Callsign TGW1102
Flight time 1h 19m
Altitude 36000
Route DOLTA G579 REPOV REPOV2B
Aircraft A20N/M-SDE2E3FGHIRWXY/LB1

Departure

Time 2026-05-06 09:13
Airport Soekarno-Hatta International Airport (WIII)

Arrival

Time 2026-05-06 10:33
Airport Singapore Changi Airport (WSSS)
Time Latitude Longitude Altitude Speed Heading
2026-05-06 08:36 -6.11774 106.66395 47 ft 0 kts 166°
2026-05-06 08:59 -6.11761 106.66392 47 ft 2 kts 166°
2026-05-06 09:00 -6.11746 106.66388 47 ft 2 kts 166°
2026-05-06 09:00 -6.11732 106.66385 47 ft 2 kts 166°
2026-05-06 09:00 -6.11717 106.66381 47 ft 2 kts 166°
2026-05-06 09:00 -6.11702 106.66377 47 ft 2 kts 167°
2026-05-06 09:01 -6.11690 106.66369 47 ft 2 kts 117°
2026-05-06 09:01 -6.11688 106.66354 47 ft 2 kts 72°
2026-05-06 09:01 -6.11695 106.66341 47 ft 2 kts 68°
2026-05-06 09:01 -6.11698 106.66330 47 ft 0 kts 69°
2026-05-06 09:02 -6.11699 106.66328 47 ft 0 kts 68°
2026-05-06 09:05 -6.11697 106.66334 47 ft 2 kts 68°
2026-05-06 09:05 -6.11687 106.66358 47 ft 5 kts 68°
2026-05-06 09:05 -6.11667 106.66396 47 ft 5 kts 32°
2026-05-06 09:05 -6.11604 106.66392 47 ft 12 kts 338°
2026-05-06 09:06 -6.11509 106.66354 47 ft 15 kts 339°
2026-05-06 09:06 -6.11401 106.66314 47 ft 17 kts 337°
2026-05-06 09:06 -6.11366 106.66219 47 ft 17 kts 250°
2026-05-06 09:06 -6.11413 106.66100 47 ft 18 kts 248°
2026-05-06 09:07 -6.11461 106.65977 47 ft 19 kts 248°
2026-05-06 09:07 -6.11512 106.65849 47 ft 19 kts 248°
2026-05-06 09:07 -6.11563 106.65721 47 ft 19 kts 248°
2026-05-06 09:07 -6.11614 106.65593 47 ft 19 kts 248°
2026-05-06 09:08 -6.11667 106.65461 47 ft 20 kts 248°
2026-05-06 09:08 -6.11720 106.65328 47 ft 20 kts 248°
2026-05-06 09:08 -6.11772 106.65195 47 ft 20 kts 248°
2026-05-06 09:08 -6.11826 106.65061 47 ft 20 kts 248°
2026-05-06 09:09 -6.11880 106.64926 47 ft 20 kts 248°
2026-05-06 09:09 -6.11934 106.64790 47 ft 20 kts 248°
2026-05-06 09:09 -6.11989 106.64651 47 ft 20 kts 248°
2026-05-06 09:09 -6.12043 106.64514 47 ft 20 kts 248°
2026-05-06 09:10 -6.12098 106.64378 47 ft 21 kts 248°
2026-05-06 09:10 -6.12152 106.64240 47 ft 21 kts 248°
2026-05-06 09:10 -6.12207 106.64101 47 ft 21 kts 248°
2026-05-06 09:10 -6.12259 106.63963 47 ft 19 kts 268°
2026-05-06 09:11 -6.12224 106.63895 47 ft 6 kts 328°
2026-05-06 09:11 -6.12213 106.63889 47 ft 3 kts 336°
2026-05-06 09:11 -6.12164 106.63889 47 ft 10 kts 23°
2026-05-06 09:11 -6.12100 106.63900 47 ft 4 kts 22°
2026-05-06 09:12 -6.12080 106.63936 47 ft 6 kts 69°
2026-05-06 09:12 -6.12039 106.64040 47 ft 42 kts 68°
2026-05-06 09:12 -6.11837 106.64543 47 ft 107 kts 69°
2026-05-06 09:12 -6.11492 106.65411 48 ft 158 kts 68°
2026-05-06 09:13 -6.11069 106.66530 379 ft 173 kts 68°
2026-05-06 09:13 -6.10645 106.67688 972 ft 176 kts 69°
2026-05-06 09:13 -6.10083 106.68764 1640 ft 174 kts 47°
2026-05-06 09:13 -6.09082 106.69424 2050 ft 184 kts 27°
2026-05-06 09:14 -6.07875 106.70036 2318 ft 200 kts 30°
2026-05-06 09:14 -6.06593 106.70763 2533 ft 220 kts 32°
2026-05-06 09:14 -6.05196 106.71585 2862 ft 237 kts 33°
2026-05-06 09:14 -6.03694 106.72478 3217 ft 255 kts 33°
2026-05-06 09:15 -6.02094 106.73431 3783 ft 264 kts 32°
2026-05-06 09:15 -6.00495 106.74380 4430 ft 266 kts 31°
2026-05-06 09:15 -5.98776 106.75019 4816 ft 270 kts
2026-05-06 09:15 -5.96906 106.74722 4986 ft 276 kts 337°
2026-05-06 09:16 -5.95373 106.73510 4990 ft 280 kts 307°
2026-05-06 09:16 -5.94469 106.71752 4996 ft 284 kts 294°
2026-05-06 09:16 -5.93671 106.69888 4992 ft 285 kts 295°
2026-05-06 09:16 -5.92865 106.68048 4998 ft 285 kts 295°
2026-05-06 09:17 -5.92029 106.66199 4992 ft 285 kts 296°
2026-05-06 09:17 -5.91181 106.64356 5000 ft 286 kts 296°
2026-05-06 09:17 -5.90338 106.62538 4992 ft 286 kts 296°
2026-05-06 09:17 -5.89477 106.60695 5048 ft 290 kts 297°
2026-05-06 09:18 -5.88587 106.58817 5633 ft 295 kts 297°
2026-05-06 09:18 -5.87709 106.56956 6553 ft 293 kts 296°
2026-05-06 09:18 -5.86826 106.55075 7360 ft 295 kts 296°
2026-05-06 09:18 -5.85942 106.53185 8119 ft 298 kts 296°
2026-05-06 09:19 -5.85048 106.51266 8848 ft 302 kts 296°
2026-05-06 09:19 -5.84138 106.49315 9552 ft 305 kts 296°
2026-05-06 09:19 -5.83230 106.47368 10240 ft 308 kts 296°
2026-05-06 09:19 -5.82294 106.45363 10681 ft 321 kts 296°
2026-05-06 09:20 -5.81308 106.43243 10977 ft 338 kts 296°
2026-05-06 09:20 -5.80271 106.41009 11260 ft 355 kts 295°
2026-05-06 09:20 -5.79191 106.38680 11528 ft 371 kts 295°
2026-05-06 09:20 -5.78076 106.36276 11796 ft 386 kts 295°
2026-05-06 09:21 -5.76910 106.33758 12272 ft 393 kts 295°
2026-05-06 09:21 -5.75745 106.31235 12863 ft 395 kts 295°
2026-05-06 09:21 -5.74458 106.28745 13407 ft 398 kts 304°
2026-05-06 09:21 -5.72615 106.26624 13960 ft 399 kts 320°
2026-05-06 09:22 -5.70326 106.25034 14531 ft 399 kts 331°
2026-05-06 09:22 -5.67869 106.23650 15071 ft 401 kts 333°
2026-05-06 09:22 -5.65337 106.22259 15589 ft 404 kts 333°
2026-05-06 09:22 -5.62856 106.20887 16092 ft 406 kts 333°
2026-05-06 09:23 -5.60339 106.19486 16587 ft 408 kts 332°
2026-05-06 09:23 -5.57825 106.18075 17055 ft 411 kts 332°
2026-05-06 09:23 -5.55273 106.16640 17366 ft 418 kts 332°
2026-05-06 09:23 -5.52685 106.15181 17745 ft 422 kts 332°
2026-05-06 09:24 -5.50078 106.13709 18170 ft 425 kts 332°
2026-05-06 09:24 -5.47468 106.12236 18589 ft 427 kts 332°
2026-05-06 09:24 -5.44835 106.10749 18997 ft 430 kts 332°
2026-05-06 09:24 -5.42190 106.09256 19401 ft 432 kts 332°
2026-05-06 09:25 -5.39503 106.07740 19800 ft 434 kts 332°
2026-05-06 09:25 -5.36826 106.06229 20178 ft 436 kts 332°
2026-05-06 09:25 -5.34158 106.04722 20538 ft 438 kts 332°
2026-05-06 09:25 -5.31421 106.03177 20882 ft 441 kts 333°
2026-05-06 09:26 -5.28724 106.01653 21202 ft 444 kts 332°
2026-05-06 09:26 -5.25982 106.00105 21520 ft 447 kts 333°
2026-05-06 09:26 -5.23233 105.98553 21830 ft 450 kts 333°
2026-05-06 09:26 -5.20456 105.96986 22140 ft 452 kts 333°
2026-05-06 09:27 -5.17657 105.95405 22480 ft 454 kts 332°
2026-05-06 09:27 -5.14868 105.93832 22734 ft 456 kts 332°
2026-05-06 09:27 -5.12063 105.92246 22761 ft 456 kts 332°
2026-05-06 09:27 -5.09223 105.90633 22932 ft 460 kts 332°
2026-05-06 09:28 -5.06408 105.89027 23320 ft 460 kts 332°
2026-05-06 09:28 -5.03577 105.87413 23676 ft 461 kts 332°
2026-05-06 09:28 -5.00764 105.85810 23981 ft 463 kts 332°
2026-05-06 09:28 -4.97888 105.84172 24278 ft 465 kts 332°
2026-05-06 09:29 -4.95050 105.82555 24557 ft 468 kts 332°
2026-05-06 09:29 -4.92133 105.80894 24839 ft 470 kts 332°
2026-05-06 09:29 -4.89233 105.79243 25116 ft 472 kts 332°
2026-05-06 09:29 -4.86320 105.77591 25396 ft 473 kts 332°
2026-05-06 09:30 -4.83433 105.75957 25660 ft 475 kts 332°
2026-05-06 09:30 -4.80472 105.74277 25921 ft 476 kts 332°
2026-05-06 09:30 -4.77555 105.72620 26163 ft 478 kts 332°
2026-05-06 09:30 -4.74616 105.70948 26393 ft 479 kts 332°
2026-05-06 09:31 -4.71667 105.69271 26616 ft 481 kts 332°
2026-05-06 09:31 -4.68703 105.67586 26868 ft 481 kts 332°
2026-05-06 09:31 -4.65717 105.65886 27178 ft 480 kts 332°
2026-05-06 09:31 -4.62799 105.64225 27484 ft 479 kts 331°
2026-05-06 09:32 -4.59853 105.62549 27791 ft 478 kts 331°
2026-05-06 09:32 -4.56914 105.60877 28092 ft 478 kts 331°
2026-05-06 09:32 -4.53973 105.59203 28393 ft 477 kts 331°
2026-05-06 09:32 -4.51052 105.57542 28692 ft 476 kts 331°
2026-05-06 09:33 -4.48113 105.55871 29009 ft 476 kts 331°
2026-05-06 09:33 -4.45181 105.54202 29319 ft 475 kts 331°
2026-05-06 09:33 -4.42263 105.52542 29625 ft 475 kts 331°
2026-05-06 09:33 -4.39347 105.50884 29941 ft 474 kts 331°
2026-05-06 09:34 -4.36440 105.49230 30259 ft 473 kts 331°
2026-05-06 09:34 -4.33543 105.47584 30566 ft 473 kts 331°
2026-05-06 09:34 -4.30621 105.45923 30884 ft 472 kts 331°
2026-05-06 09:34 -4.27745 105.44288 31206 ft 471 kts 331°
2026-05-06 09:35 -4.24843 105.42638 31519 ft 470 kts 331°
2026-05-06 09:35 -4.21955 105.40997 31824 ft 469 kts 331°
2026-05-06 09:35 -4.19092 105.39368 32120 ft 468 kts 331°
2026-05-06 09:35 -4.16240 105.37746 32407 ft 467 kts 331°
2026-05-06 09:36 -4.13339 105.36096 32728 ft 467 kts 331°
2026-05-06 09:36 -4.10492 105.34477 33060 ft 465 kts 331°
2026-05-06 09:36 -4.07609 105.32825 33401 ft 464 kts 331°
2026-05-06 09:36 -4.04793 105.31212 33736 ft 463 kts 331°
2026-05-06 09:37 -4.01937 105.29581 34066 ft 462 kts 331°
2026-05-06 09:37 -3.99195 105.28020 34325 ft 462 kts 331°
2026-05-06 09:37 -3.96333 105.26394 34549 ft 462 kts 331°
2026-05-06 09:37 -3.93527 105.24802 34768 ft 463 kts 331°
2026-05-06 09:38 -3.90661 105.23176 34980 ft 463 kts 331°
2026-05-06 09:38 -3.87793 105.21561 35172 ft 464 kts 331°
2026-05-06 09:38 -3.84962 105.19974 35350 ft 465 kts 331°
2026-05-06 09:38 -3.82082 105.18360 35522 ft 465 kts 331°
2026-05-06 09:39 -3.79245 105.16768 35688 ft 466 kts 331°
2026-05-06 09:39 -3.73460 105.13515 35761 ft 467 kts 331°
2026-05-06 09:40 -3.67720 105.10286 35767 ft 466 kts 331°
2026-05-06 09:40 -3.59133 105.05453 35770 ft 466 kts 331°
2026-05-06 09:41 -3.53386 105.02219 35770 ft 467 kts 331°
2026-05-06 09:41 -3.47641 104.98986 35770 ft 466 kts 331°
2026-05-06 09:42 -3.41887 104.95748 35768 ft 466 kts 331°
2026-05-06 09:42 -3.36182 104.92539 35767 ft 466 kts 331°
2026-05-06 09:43 -3.30425 104.89301 35768 ft 466 kts 331°
2026-05-06 09:43 -3.24730 104.86098 35767 ft 466 kts 331°
2026-05-06 09:44 -3.18963 104.82856 35768 ft 466 kts 331°
2026-05-06 09:44 -3.13265 104.79650 35766 ft 466 kts 331°
2026-05-06 09:45 -3.07509 104.76412 35765 ft 466 kts 331°
2026-05-06 09:45 -3.01806 104.73207 35767 ft 466 kts 331°
2026-05-06 09:46 -2.96060 104.69978 35764 ft 466 kts 332°
2026-05-06 09:46 -2.90147 104.67102 35762 ft 464 kts 338°
2026-05-06 09:47 -2.84006 104.64927 35757 ft 463 kts 345°
2026-05-06 09:47 -2.77659 104.63434 35756 ft 463 kts 350°
2026-05-06 09:48 -2.71167 104.62212 35759 ft 463 kts 350°
2026-05-06 09:48 -2.64761 104.61011 35755 ft 463 kts 350°
2026-05-06 09:49 -2.58316 104.59797 35755 ft 463 kts 350°
2026-05-06 09:49 -2.51882 104.58583 35756 ft 463 kts 350°
2026-05-06 09:50 -2.45465 104.57371 35762 ft 463 kts 350°
2026-05-06 09:50 -2.39035 104.56155 35765 ft 463 kts 350°
2026-05-06 09:51 -2.32598 104.54939 35766 ft 463 kts 350°
2026-05-06 09:51 -2.26211 104.53732 35766 ft 463 kts 350°
2026-05-06 09:52 -2.19785 104.52518 35765 ft 463 kts 350°
2026-05-06 09:52 -2.13382 104.51308 35767 ft 463 kts 350°
2026-05-06 09:53 -2.06930 104.50090 35766 ft 463 kts 350°
2026-05-06 09:53 -2.00537 104.48882 35767 ft 463 kts 350°
2026-05-06 09:54 -1.94108 104.47669 35767 ft 463 kts 350°
2026-05-06 09:54 -1.87669 104.46453 35768 ft 463 kts 350°
2026-05-06 09:55 -1.81394 104.45273 35768 ft 463 kts 350°
2026-05-06 09:55 -1.74985 104.44067 35767 ft 464 kts 350°
2026-05-06 09:56 -1.68569 104.42856 35764 ft 464 kts 350°
2026-05-06 09:56 -1.62115 104.41637 35763 ft 464 kts 350°
2026-05-06 09:57 -1.55705 104.40427 35760 ft 464 kts 350°
2026-05-06 09:57 -1.49255 104.39209 35761 ft 464 kts 350°
2026-05-06 09:58 -1.42839 104.37997 35762 ft 464 kts 350°
2026-05-06 09:58 -1.36403 104.36784 35762 ft 465 kts 350°
2026-05-06 09:59 -1.29929 104.35561 35763 ft 465 kts 350°
2026-05-06 09:59 -1.23485 104.34334 35767 ft 465 kts 350°
2026-05-06 10:00 -1.17057 104.33092 35767 ft 465 kts 350°
2026-05-06 10:00 -1.10629 104.31866 35768 ft 465 kts 350°
2026-05-06 10:01 -1.04187 104.30647 35768 ft 465 kts 350°
2026-05-06 10:01 -0.97722 104.29428 35767 ft 466 kts 350°
2026-05-06 10:02 -0.91261 104.28208 35766 ft 466 kts 350°
2026-05-06 10:02 -0.84808 104.26995 35767 ft 466 kts 350°
2026-05-06 10:03 -0.78322 104.25777 35766 ft 466 kts 350°
2026-05-06 10:03 -0.71908 104.24568 35767 ft 465 kts 350°
2026-05-06 10:04 -0.65448 104.23351 35766 ft 465 kts 350°
2026-05-06 10:04 -0.59025 104.22141 35768 ft 465 kts 350°
2026-05-06 10:05 -0.52586 104.20898 35770 ft 466 kts 349°
2026-05-06 10:05 -0.46120 104.19606 35768 ft 466 kts 349°
2026-05-06 10:06 -0.39702 104.18324 35773 ft 465 kts 349°
2026-05-06 10:06 -0.33265 104.17045 35777 ft 465 kts 349°
2026-05-06 10:07 -0.26809 104.15762 35564 ft 462 kts 349°
2026-05-06 10:07 -0.23658 104.15137 35028 ft 459 kts 349°
2026-05-06 10:07 -0.20469 104.14504 34055 ft 463 kts 350°
2026-05-06 10:08 -0.17230 104.13863 32886 ft 469 kts 349°
2026-05-06 10:08 -0.13969 104.13216 31773 ft 475 kts 349°
2026-05-06 10:08 -0.10698 104.12567 30741 ft 480 kts 349°
2026-05-06 10:08 -0.07351 104.11902 29720 ft 483 kts 350°
2026-05-06 10:09 -0.04032 104.11240 28731 ft 485 kts 350°
2026-05-06 10:09 -0.00696 104.10578 27810 ft 486 kts 350°
2026-05-06 10:09 0.02540 104.09937 26914 ft 487 kts 350°
2026-05-06 10:09 0.05887 104.09274 26074 ft 485 kts 350°
2026-05-06 10:10 0.09242 104.08607 25544 ft 476 kts 350°
2026-05-06 10:10 0.12478 104.07966 25004 ft 469 kts 350°
2026-05-06 10:10 0.15728 104.07324 24450 ft 463 kts 350°
2026-05-06 10:10 0.18904 104.06696 23907 ft 458 kts 351°
2026-05-06 10:11 0.22024 104.06078 23374 ft 453 kts 351°
2026-05-06 10:11 0.25140 104.05463 22818 ft 449 kts 351°
2026-05-06 10:11 0.28233 104.04848 22262 ft 446 kts 351°
2026-05-06 10:11 0.31295 104.04240 21723 ft 442 kts 351°
2026-05-06 10:12 0.34331 104.03638 21168 ft 439 kts 351°
2026-05-06 10:12 0.37363 104.03037 20604 ft 436 kts 351°
2026-05-06 10:12 0.40358 104.02445 20045 ft 433 kts 351°
2026-05-06 10:12 0.43328 104.01856 19488 ft 430 kts 350°
2026-05-06 10:13 0.46302 104.01266 18935 ft 426 kts 350°
2026-05-06 10:13 0.49199 104.00691 18393 ft 422 kts 351°
2026-05-06 10:13 0.52110 104.00114 17958 ft 415 kts 350°
2026-05-06 10:13 0.54951 103.99550 17731 ft 401 kts 350°
2026-05-06 10:14 0.57654 103.99014 17606 ft 387 kts 350°
2026-05-06 10:14 0.60288 103.98491 17475 ft 373 kts 350°
2026-05-06 10:14 0.62787 103.97996 17363 ft 359 kts 350°
2026-05-06 10:14 0.65234 103.97510 17268 ft 345 kts 350°
2026-05-06 10:15 0.67551 103.97050 17191 ft 332 kts 351°
2026-05-06 10:15 0.69807 103.96601 17132 ft 318 kts 351°
2026-05-06 10:15 0.71967 103.96229 17057 ft 303 kts 360°
2026-05-06 10:15 0.74037 103.96461 16866 ft 291 kts 20°
2026-05-06 10:16 0.75927 103.97208 16548 ft 287 kts 25°
2026-05-06 10:16 0.77752 103.98005 16307 ft 282 kts 25°
2026-05-06 10:16 0.79561 103.98794 16050 ft 278 kts 25°
2026-05-06 10:16 0.81358 103.99570 15769 ft 277 kts 25°
2026-05-06 10:17 0.83144 104.00336 15474 ft 276 kts 24°
2026-05-06 10:17 0.84935 104.01099 15167 ft 275 kts 24°
2026-05-06 10:17 0.86705 104.01850 14865 ft 274 kts 24°
2026-05-06 10:17 0.88475 104.02599 14568 ft 272 kts 24°
2026-05-06 10:18 0.90231 104.03343 14270 ft 270 kts 24°
2026-05-06 10:18 0.91970 104.04080 13982 ft 269 kts 24°
2026-05-06 10:18 0.93695 104.04810 13686 ft 267 kts 24°
2026-05-06 10:18 0.95415 104.05537 13413 ft 265 kts 24°
2026-05-06 10:19 0.97151 104.06272 13130 ft 265 kts 24°
2026-05-06 10:19 0.98844 104.06988 12839 ft 264 kts 24°
2026-05-06 10:19 1.00539 104.07705 12539 ft 263 kts 24°
2026-05-06 10:19 1.02242 104.08425 12234 ft 262 kts 24°
2026-05-06 10:20 1.03935 104.09141 11932 ft 261 kts 24°
2026-05-06 10:20 1.05575 104.09837 11643 ft 261 kts 24°
2026-05-06 10:20 1.07278 104.10558 11338 ft 261 kts 24°
2026-05-06 10:20 1.08946 104.11262 11037 ft 260 kts 24°
2026-05-06 10:21 1.10644 104.11981 10740 ft 259 kts 24°
2026-05-06 10:21 1.12312 104.12681 10445 ft 259 kts 24°
2026-05-06 10:21 1.13989 104.13385 10149 ft 259 kts 24°
2026-05-06 10:21 1.15650 104.14087 9868 ft 258 kts 24°
2026-05-06 10:22 1.17328 104.14801 9581 ft 257 kts 24°
2026-05-06 10:22 1.18993 104.15510 9300 ft 256 kts 24°
2026-05-06 10:22 1.20640 104.16213 9022 ft 254 kts 24°
2026-05-06 10:22 1.22291 104.16917 8746 ft 253 kts 24°
2026-05-06 10:23 1.23909 104.17607 8473 ft 251 kts 24°
2026-05-06 10:23 1.25539 104.18302 8193 ft 250 kts 24°
2026-05-06 10:23 1.27154 104.18993 7923 ft 250 kts 24°
2026-05-06 10:23 1.28783 104.19686 7648 ft 249 kts 24°
2026-05-06 10:24 1.30401 104.20376 7374 ft 248 kts 24°
2026-05-06 10:24 1.32008 104.21034 7100 ft 247 kts 17°
2026-05-06 10:24 1.33721 104.21204 6820 ft 246 kts 352°
2026-05-06 10:24 1.35427 104.20877 6578 ft 245 kts 347°
2026-05-06 10:25 1.37122 104.20489 6313 ft 245 kts 347°
2026-05-06 10:25 1.38783 104.20109 6046 ft 244 kts 347°
2026-05-06 10:25 1.40476 104.19731 5774 ft 243 kts 348°
2026-05-06 10:25 1.42134 104.19369 5512 ft 243 kts 348°
2026-05-06 10:26 1.43811 104.19006 5237 ft 242 kts 348°
2026-05-06 10:26 1.45476 104.18649 4971 ft 240 kts 348°
2026-05-06 10:26 1.47130 104.18295 4710 ft 238 kts 348°
2026-05-06 10:26 1.48761 104.17943 4489 ft 233 kts 349°
2026-05-06 10:27 1.50300 104.17587 4399 ft 224 kts 341°
2026-05-06 10:27 1.51553 104.16677 4087 ft 225 kts 300°
2026-05-06 10:27 1.51937 104.15173 3841 ft 222 kts 264°
2026-05-06 10:27 1.51615 104.13689 3628 ft 217 kts 255°
2026-05-06 10:28 1.51231 104.12226 3394 ft 216 kts 256°
2026-05-06 10:28 1.50868 104.10755 3161 ft 216 kts 257°
2026-05-06 10:28 1.50518 104.09260 2924 ft 216 kts 257°
2026-05-06 10:28 1.50189 104.07810 2695 ft 215 kts 257°
2026-05-06 10:29 1.49863 104.06356 2616 ft 212 kts 257°
2026-05-06 10:29 1.49533 104.04879 2512 ft 213 kts 257°
2026-05-06 10:29 1.48965 104.03515 2397 ft 212 kts 226°
2026-05-06 10:29 1.47741 104.02778 2323 ft 197 kts 197°
2026-05-06 10:30 1.46442 104.02407 2072 ft 187 kts 195°
2026-05-06 10:30 1.45240 104.02038 1865 ft 175 kts 197°
2026-05-06 10:30 1.44111 104.01636 1546 ft 172 kts 200°
2026-05-06 10:30 1.42989 104.01174 1158 ft 170 kts 202°
2026-05-06 10:31 1.41932 104.00719 917 ft 160 kts 202°
2026-05-06 10:31 1.40927 104.00291 714 ft 148 kts 202°
2026-05-06 10:31 1.40003 103.99901 531 ft 142 kts 202°
2026-05-06 10:31 1.39088 103.99519 363 ft 141 kts 203°
2026-05-06 10:32 1.38176 103.99133 161 ft 140 kts 203°
2026-05-06 10:32 1.37274 103.98750 32 ft 135 kts 203°
2026-05-06 10:32 1.36519 103.98430 28 ft 91 kts 202°
2026-05-06 10:32 1.36058 103.98237 28 ft 60 kts 203°
2026-05-06 10:33 1.35733 103.98117 28 ft 35 kts 185°
2026-05-06 10:33 1.35570 103.98120 28 ft 19 kts 165°
2026-05-06 10:33 1.35555 103.98217 28 ft 17 kts 33°
2026-05-06 10:33 1.35669 103.98269 28 ft 17 kts 23°
2026-05-06 10:34 1.35699 103.98357 28 ft 16 kts 146°
2026-05-06 10:34 1.35590 103.98333 28 ft 16 kts 203°
2026-05-06 10:34 1.35483 103.98288 28 ft 16 kts 202°
2026-05-06 10:34 1.35374 103.98243 28 ft 16 kts 204°
2026-05-06 10:35 1.35267 103.98196 28 ft 16 kts 203°
2026-05-06 10:35 1.35156 103.98172 28 ft 16 kts 148°
2026-05-06 10:35 1.35177 103.98257 28 ft 15 kts 23°
2026-05-06 10:35 1.35249 103.98306 28 ft 10 kts 89°
2026-05-06 10:36 1.35224 103.98367 28 ft 4 kts 112°
2026-05-06 10:36 1.35220 103.98377 28 ft 0 kts 112°